OBJECT P, 61907

Orbit data source: Space-Track

You're viewing an Uncataloged Satellite

Recently launched and/or uncataloged satellites may have evolving metadata. Metadata may include but not limited to: Owner, Maufacturer, Bus, Motor, and Mission.

OBJECT P, 61907 is a Chinese satellite in SSO that was launched on Mon, 11 Nov 2024 UTC via a LIJIAN-1 launch vehicle from the Jiuquan Satellite Launch Center, China (JSC). Unknown objects in Earth's orbit typically refer to objects detected orbiting the Earth but have not yet been identified or cataloged. These objects could be anything from previously untracked satellites, spent rocket stages, debris from satellite collisions, or even natural meteoroids temporarily captured by Earth's gravity.

Loading next visibility...
OBJECT P details
Identifier
61907, 2024-205P
Orbit
SSO
Last TLE update17 hours ago
Origin
Flag of CNTLCJ/JUNT (CN / PRC)
ManufacturerJUNT
MissionOperational spacecraft
Bus & MotorCUBESAT 6U?, Unknown motor
Mass~12 kg wet, ~12 kg dry
Launch date (UTC)
2024-11-11 (1 month ago)
Launch vehicle
LIJIAN-1
Launch site
Jiuquan Satellite Launch Center, China (JSC)
Object typeUnknown
Shape & HBRUnknown
Radar Cross SectionMedium (>0.1 m² and <1 m²)

Expand to show TLE details & history

TLE from 17 hours ago
0 OBJECT P
1 61907U 24205P   24348.17811443  .00006570  00000-0  34977-3 0  9997
2 61907  97.4754  59.8292 0014925 173.8066 186.3354 15.15465933  4813
Epoch: 2024-12-13T04:16Z
Definitive object data (Epoch: 2024-12-13T04:16:29.086Z)
Latitude-0.00002°
Longitude-86.63981°
Altitude532.881 km
Speed7.591 km/s
True Right ascension03h 59m 19s
True Declination0° 00' 00"
Sunlit
Object was in full shadow at TLE epoch
Visualization TLE readout
Latitude14.38692°
Longitude-87.84086°
Altitude531.343 km
Speed7.593 km/s
Apparent Right ascension05h 43m 19s
Apparent Declination-13° 35' 33"
Sunlit
Object is in full shadow
Visualization observer readout
Local Sidereal Time20:17:58
Azimuth63.199° ENE
Elevation-47.132°
Doppler factor1
Orbital elements
Apogee altitude526.83 km
Perigee altitude506.249 km
Semi-major axis6,894.676 km
Eccentricity0.0014925
Inclination97.4754°
RAAN59.8292°
Arg. of periapsis173.8066°
True anomaly186.31656°
Mean anomaly186.3354°
Eccentric anomaly186.32598°
Mean motion3.79116 °/min
BSTAR0.00034977
Orbital period94.96 mins
Loading maneuver chart data...
Loading historical data...
Loading historical data...
Loading historical data...
Loading historical data...
Loading historical data...
Loading historical data...
Loading historical data...

OBJECT P Visibility forecast

Observer location: undefined°, undefined

Span
Click to sort rows by Start time (UTC) header in descending order
Start Az.
Max El. time (UTC)
Max El. Az.
Max El.
End time (UTC)
End Az.
4 mins2024-12-14 04:12:11.422Z106.436° ESE2024-12-14 04:14:11.422Z66.632° ENE19.445°2024-12-14 04:16:11.422Z28.743° NE
5 mins2024-12-14 05:46:11.422Z222.523° SW2024-12-14 05:48:11.422Z267.459° W22.865°2024-12-14 05:51:11.422Z320.563° NNW
4 mins2024-12-14 17:19:11.422Z59.858° ENE2024-12-14 17:20:11.422Z86.884° E26.338°2024-12-14 17:23:11.422Z154.774° SSE
|